When you browse on this site, cookies collect data to enhance your experience and personalize the content and advertising you see.
Visit our Privacy Policy to learn more. By continuing to use the site, you agree to this use of cookies and data.
  • In Czech Republic
  • List of Countries
  • For 7 days
  • Water Temperature
  • Weather Map
  • Weather Widgets
  • user-avatar
    Login

    Hourly Weather Neuquén

    Today, 28 February, Friday

    Time Temperature Precipitation Wind Pressure Humidity
    00:00 +24°C° 0 mm 3 mps 732 mmHg 23%
    01:00 +22°C° 0 mm 3 mps 731 mmHg 24%
    02:00 +22°C° 0 mm 3 mps 732 mmHg 27%
    03:00 +21°C° 0 mm 3 mps 732 mmHg 29%
    04:00 +21°C° 0 mm 4 mps 732 mmHg 32%
    05:00 +22°C° 0 mm 4 mps 733 mmHg 30%
    06:00 +23°C° 0 mm 4 mps 733 mmHg 29%
    07:00 +25°C° 0 mm 4 mps 733 mmHg 27%
    08:00 +27°C° 0 mm 4 mps 734 mmHg 24%
    09:00 +29°C° 0 mm 4 mps 734 mmHg 21%
    10:00 +31°C° 0 mm 3 mps 734 mmHg 18%
    11:00 +33°C° 0 mm 4 mps 734 mmHg 17%
    12:00 +34°C° 0 mm 4 mps 734 mmHg 15%
    13:00 +36°C° 0 mm 4 mps 733 mmHg 13%
    14:00 +36°C° 0 mm 5 mps 733 mmHg 12%
    15:00 +36°C° 0 mm 5 mps 733 mmHg 11%
    16:00 +36°C° 0 mm 5 mps 732 mmHg 11%
    17:00 +34°C° 0 mm 4 mps 732 mmHg 12%
    18:00 +30°C° 0 mm 4 mps 733 mmHg 14%
    19:00 +28°C° 0 mm 3 mps 733 mmHg 16%
    20:00 +27°C° 0 mm 2 mps 733 mmHg 18%
    21:00 +26°C° 0 mm 2 mps 734 mmHg 20%
    22:00 +25°C° 0 mm 2 mps 734 mmHg 22%
    23:00 +24°C° 0 mm 2 mps 734 mmHg 24%

    Tomorrow, 29 February, Saturday

    Time Temperature Precipitation Wind Pressure Humidity
    00:00 +23°C° 0 mm 2 mps 734 mmHg 26%
    01:00 +23°C° 0 mm 2 mps 734 mmHg 27%
    02:00 +21°C° 0 mm 2 mps 735 mmHg 30%
    03:00 +21°C° 0 mm 3 mps 735 mmHg 34%
    04:00 +21°C° 0 mm 4 mps 735 mmHg 37%
    05:00 +22°C° 0 mm 4 mps 735 mmHg 36%
    06:00 +23°C° 0 mm 4 mps 735 mmHg 36%
    07:00 +23°C° 0 mm 4 mps 736 mmHg 36%
    08:00 +27°C° 0 mm 4 mps 736 mmHg 30%
    09:00 +30°C° 0 mm 4 mps 736 mmHg 25%
    10:00 +33°C° 0 mm 4 mps 736 mmHg 19%
    11:00 +35°C° 0 mm 4 mps 735 mmHg 17%
    12:00 +36°C° 0 mm 4 mps 735 mmHg 15%
    13:00 +38°C° 0 mm 4 mps 734 mmHg 12%
    14:00 +38°C° 0 mm 4 mps 734 mmHg 12%
    15:00 +40°C° 0 mm 4 mps 733 mmHg 11%
    16:00 +40°C° 0 mm 4 mps 733 mmHg 11%
    17:00 +37°C° 0 mm 5 mps 732 mmHg 12%
    18:00 +35°C° 0 mm 5 mps 732 mmHg 14%
    19:00 +33°C° 0 mm 5 mps 732 mmHg 15%
    20:00 +32°C° 0 mm 5 mps 732 mmHg 16%
    21:00 +30°C° 0 mm 5 mps 732 mmHg 17%
    22:00 +30°C° 0 mm 5 mps 732 mmHg 18%
    23:00 +29°C° 0 mm 5 mps 732 mmHg 19%

    Day after tomorrow, 1 March, Sunday

    Time Temperature Precipitation Wind Pressure Humidity
    00:00 +28°C° 0 mm 5 mps 732 mmHg 20%
    01:00 +27°C° 0 mm 6 mps 731 mmHg 21%
    02:00 +27°C° 0 mm 5 mps 731 mmHg 23%
    03:00 +26°C° 0 mm 5 mps 731 mmHg 24%
    04:00 +26°C° 0 mm 5 mps 731 mmHg 26%
    05:00 +26°C° 0 mm 5 mps 731 mmHg 25%
    06:00 +27°C° 0 mm 5 mps 732 mmHg 25%
    07:00 +28°C° 0 mm 5 mps 732 mmHg 24%
    08:00 +33°C° 0 mm 5 mps 732 mmHg 20%
    09:00 +36°C° 0 mm 5 mps 732 mmHg 16%
    10:00 +41°C° 0 mm 5 mps 732 mmHg 12%
    11:00 +43°C° 0 mm 7 mps 732 mmHg 11%
    12:00 +44°C° 0 mm 8 mps 731 mmHg 9%
    13:00 +47°C° 0 mm 10 mps 731 mmHg 8%
    14:00 +45°C° 0 mm 9 mps 730 mmHg 8%
    15:00 +45°C° 0 mm 9 mps 730 mmHg 9%
    16:00 +45°C° 0 mm 9 mps 729 mmHg 9%
    17:00 +41°C° 0 mm 8 mps 729 mmHg 11%
    18:00 +39°C° 0 mm 7 mps 729 mmHg 13%
    19:00 +36°C° 0 mm 6 mps 729 mmHg 14%
    20:00 +35°C° 0 mm 6 mps 730 mmHg 15%
    21:00 +34°C° 0 mm 7 mps 730 mmHg 15%
    22:00 +34°C° 0 mm 7 mps 730 mmHg 16%
    23:00 +32°C° 0 mm 6 mps 730 mmHg 18%

    2 March, Monday

    Time Temperature Precipitation Wind Pressure Humidity
    00:00 +30°C° 0 mm 5 mps 730 mmHg 20%
    01:00 +28°C° 0 mm 4 mps 729 mmHg 21%
    02:00 +27°C° 0 mm 4 mps 730 mmHg 22%
    03:00 +27°C° 0 mm 5 mps 730 mmHg 22%
    04:00 +26°C° 0 mm 5 mps 730 mmHg 23%
    05:00 +27°C° 0 mm 6 mps 730 mmHg 22%
    06:00 +28°C° 0 mm 6 mps 730 mmHg 22%
    07:00 +29°C° 0 mm 6 mps 731 mmHg 21%
    08:00 +33°C° 0 mm 6 mps 731 mmHg 18%
    09:00 +36°C° 0 mm 6 mps 731 mmHg 15%
    10:00 +39°C° 0 mm 5 mps 731 mmHg 12%
    11:00 +40°C° 0 mm 5 mps 731 mmHg 11%
    12:00 +41°C° 0 mm 5 mps 730 mmHg 10%
    13:00 +42°C° 0 mm 5 mps 730 mmHg 10%
    14:00 +42°C° 0 mm 5 mps 729 mmHg 9%
    15:00 +42°C° 0 mm 5 mps 729 mmHg 9%
    16:00 +42°C° 0 mm 5 mps 728 mmHg 9%
    17:00 +38°C° 0 mm 4 mps 728 mmHg 12%
    18:00 +35°C° 0 mm 3 mps 728 mmHg 14%
    19:00 +31°C° 0 mm 2 mps 728 mmHg 16%
    20:00 +31°C° 0 mm 3 mps 729 mmHg 17%
    21:00 +31°C° 0 mm 3 mps 729 mmHg 18%
    22:00 +32°C° 0 mm 4 mps 729 mmHg 19%
    23:00 +30°C° 0 mm 4 mps 729 mmHg 19%

    3 March, Tuesday

    Time Temperature Precipitation Wind Pressure Humidity
    00:00 +28°C° 0 mm 4 mps 729 mmHg 20%
    01:00 +27°C° 0 mm 4 mps 729 mmHg 20%
    02:00 +27°C° 0 mm 4 mps 729 mmHg 20%
    03:00 +26°C° 0 mm 4 mps 729 mmHg 20%
    04:00 +26°C° 0 mm 5 mps 729 mmHg 20%
    05:00 +27°C° 0 mm 5 mps 729 mmHg 19%
    06:00 +28°C° 0 mm 5 mps 729 mmHg 18%
    07:00 +29°C° 0 mm 6 mps 730 mmHg 17%
    08:00 +33°C° 0 mm 5 mps 730 mmHg 15%
    09:00 +35°C° 0 mm 5 mps 730 mmHg 12%
    10:00 +38°C° 0 mm 4 mps 730 mmHg 10%
    11:00 +40°C° 0 mm 4 mps 730 mmHg 9%
    12:00 +41°C° 0 mm 4 mps 729 mmHg 8%
    13:00 +42°C° 0 mm 4 mps 729 mmHg 7%
    14:00 +42°C° 0 mm 4 mps 729 mmHg 7%
    15:00 +42°C° 0 mm 4 mps 728 mmHg 7%
    16:00 +43°C° 0 mm 4 mps 728 mmHg 7%
    17:00 +40°C° 0 mm 4 mps 728 mmHg 8%
    18:00 +36°C° 0 mm 5 mps 729 mmHg 9%
    19:00 +33°C° 0 mm 5 mps 729 mmHg 10%
    20:00 +30°C° 0 mm 6 mps 729 mmHg 19%
    21:00 +28°C° 0 mm 7 mps 730 mmHg 27%
    22:00 +26°C° 0 mm 9 mps 731 mmHg 36%
    23:00 +24°C° 0 mm 9 mps 731 mmHg 39%

    4 March, Wednesday

    Time Temperature Precipitation Wind Pressure Humidity
    00:00 +23°C° 0 mm 8 mps 731 mmHg 42%
    01:00 +22°C° 0 mm 8 mps 731 mmHg 45%
    02:00 +21°C° 0 mm 8 mps 731 mmHg 50%
    03:00 +20°C° 0 mm 7 mps 732 mmHg 54%
    04:00 +18°C° 0 mm 7 mps 732 mmHg 59%
    05:00 +18°C° 0 mm 7 mps 732 mmHg 59%
    06:00 +19°C° 0 mm 6 mps 733 mmHg 58%
    07:00 +20°C° 0 mm 5 mps 733 mmHg 58%
    08:00 +22°C° 0 mm 4 mps 733 mmHg 51%
    09:00 +25°C° 0 mm 3 mps 733 mmHg 44%
    10:00 +28°C° 0 mm 2 mps 733 mmHg 37%
    11:00 +30°C° 0 mm 2 mps 732 mmHg 32%
    12:00 +32°C° 0 mm 2 mps 732 mmHg 28%
    13:00 +35°C° 0 mm 2 mps 731 mmHg 24%
    14:00 +37°C° 0 mm 3 mps 731 mmHg 22%
    15:00 +38°C° 0 mm 3 mps 730 mmHg 19%
    16:00 +41°C° 0 mm 4 mps 729 mmHg 17%
    17:00 +37°C° 0 mm 3 mps 729 mmHg 20%
    18:00 +34°C° 0 mm 2 mps 729 mmHg 24%
    19:00 +30°C° 0 mm 1 mps 729 mmHg 28%
    20:00 +30°C° 0 mm 2 mps 729 mmHg 28%
    21:00 +30°C° 0 mm 3 mps 730 mmHg 28%
    22:00 +30°C° 0 mm 4 mps 730 mmHg 28%
    23:00 +29°C° 0 mm 4 mps 730 mmHg 30%
    Show more